Regional Weather Roundup
Issued by NWS Little Rock, AR

Home | Current Version | Previous Version | Graphics & Text | Print | Product List | Glossary On
Versions: 1 2 3 4 5 6 7 8 9 10 11 12 13 14 15 16 17 18 19 20 21 22 23 24 25 26 27 28 29 30 31 32 33 34 35 36 37 38 39 40 41 42 43 44 45 46 47 48 49 50
000
ASUS44 KLZK 241005
RWRLZK

WEATHER ROUNDUP FOR ARKANSAS
NATIONAL WEATHER SERVICE LITTLE ROCK AR
500 AM CDT THU JUL 24 2014

NOTE: "FAIR" INDICATES FEW OR NO CLOUDS BELOW 12,000 FEET WITH NO
SIGNIFICANT WEATHER AND/OR OBSTRUCTIONS TO VISIBILITY.

ARZ001-003-010-029-241100-
NORTHWEST ARKANSAS

CITY           SKY/WX    TMP DP  RH WIND       PRES   REMARKS
FAYETTEVILLE   FOG       61  61 100 CALM      30.07S VSB 1/2
FORT SMITH     CLEAR     68  66  93 W6        30.03R
HARRISON       CLOUDY    69  69 100 NE6       30.09R
BENTONVILLE    CLEAR     64  63  94 CALM      30.08R
ROGERS         CLEAR     66  63  90 E3        30.08S
SILOAM SPGS    CLEAR     64  59  82 E3        30.08R
HIGHFILL       CLEAR     65  64  97 CALM      30.07R
$$

ARZ004-005-016-241100-
NORTH CENTRAL ARKANSAS

CITY           SKY/WX    TMP DP  RH WIND       PRES   REMARKS
BATESVILLE     CLOUDY    68  68 100 CALM      30.04R
FLIPPIN        MOCLDY    70  68  94 N3        30.07R
MTN HOME       CLOUDY    68  67  96 NE3       30.07R
$$

ARZ040-041-241100-
WEST CENTRAL ARKANSAS

CITY           SKY/WX    TMP DP  RH WIND       PRES   REMARKS
MENA           PTCLDY    64  64 100 CALM      30.05R
MOUNT IDA      CLEAR     64  63  96 CALM      30.02R FOG
$$

ARZ009-017-025-026-028-241100-
NORTHEAST ARKANSAS

CITY           SKY/WX    TMP DP  RH WIND       PRES   REMARKS
CORNING        PTSUNNY   66  59  77 NE7       30.06R
JONESBORO      CLOUDY    71  62  73 NE9       30.03R
NEWPORT        CLOUDY    71  67  87 N14G23    30.04R
WALNUT RIDGE   PTCLDY    70  61  73 NE9       30.04R
BLYTHEVILLE    CLEAR     68  66  93 N9        30.02R
$$

ARZ022-023-033-042-044-241100-
CENTRAL ARKANSAS

CITY           SKY/WX    TMP DP  RH WIND       PRES   REMARKS
LITTLE ROCK    PTCLDY    70  67  90 NW3       30.03R
N LITTLE ROCK    N/A     68  68 100 W3        30.03R
JACKSONVILLE   CLEAR     68 N/A N/A W2        30.03R
SEARCY         PTCLDY    69  68  97 NW6       30.03R
HOT SPRINGS    CLOUDY    67  67 100 CALM      30.04R FOG
RUSSELLVILLE   CLOUDY    70  68  93 CALM      30.04R FOG
CLINTON        CLOUDY    70  70 100 CALM      30.05R FOG
$$

ARZ036-241100-
EAST ARKANSAS

CITY           SKY/WX    TMP DP  RH WIND       PRES   REMARKS
WEST MEMPHIS   CLEAR     68  68 100 CALM      29.99R
$$

ARZ050-053-066-070-073-241100-
SOUTHWEST ARKANSAS

CITY           SKY/WX    TMP DP  RH WIND       PRES   REMARKS
ARKADELPHIA    FOG       68  68 100 CALM      30.04R VSB 1/2
CAMDEN         CLOUDY    68  66  94 CALM      30.02R
TEXARKANA      FOG       69  68  96 CALM      30.04R VSB 1
EL DORADO      CLOUDY    69  69 100 NW6       30.02R FOG
$$

ARZ056-057-069-241100-
SOUTHEAST ARKANSAS

CITY           SKY/WX    TMP DP  RH WIND       PRES   REMARKS
PINE BLUFF     CLEAR     69  68  96 N5        30.01R FOG
STUTTGART      CLEAR     68  66  94 NW6       30.02R
MONTICELLO     CLEAR     72  69  90 NE3       29.99S

$$





USA.gov is the U.S. government's official web portal to all federal, state and local government web resources and services.